Terminal Aerodrome Forecast
Issued by NWS Aberdeen, SD

Home | Current Version | Previous Version | Text Only | Print | Product List | Glossary On
Versions: 1 2 3 4 5 6 7 8 9 10 11 12 13 14 15 16 17 18 19 20 21 22 23 24 25 26 27 28 29 30 31 32 33 34 35 36 37 38 39 40 41 42 43 44 45 46 47 48 49 50
897
FTUS43 KABR 262327
TAFABR
TAF
KABR 262327Z 2700/2724 VRB03KT P6SM BKN100
     FM270600 VRB03KT P6SM BKN025
     FM271100 VRB03KT 4SM BR BKN010
     FM271600 VRB03KT P6SM BKN045
     FM271900 10004KT P6SM SCT050=

USA.gov is the U.S. government's official web portal to all federal, state and local government web resources and services.